EHI
0 0 0 0 0 1 2 3 8 24 38 31 12 5 5 3 1 1 0 0 0 0 0 0 0 0 0 0 0 0 0 0 0 0 0 0 0 0
0 0 0 0 0 0 1 3 10 27 39 27 9 3 2 1 1 1 0 0 0 0 0 0 0 0 0 0 0 0 0 0 0 0 0 0 0 0
0 0 0 0 0 1 1 4 13 26 29 15 4 1 0 0 0 0 0 0 0 0 0 0 0 0 0 0 0 0 0 0 0 0 0 0 0 0
0 0 0 0 0 1 2 7 14 18 14 5 0 0 0 0 0 0 0 0 0 0 0 0 0 0 0 0 0 0 0 0 0 0 0 0 0 0
0 0 0 0 0 1 2 8 11 10 6 2 0 0 0 0 0 0 0 0 0 0 0 0 0 0 0 0 0 0 0 0 0 0 0 0 0 0
0 0 0 0 0 0 1 5 6 5 3 1 0 0 0 0 0 0 0 0 0 0 0 0 0 0 0 0 0 0 0 0 0 0 0 0 0 0
0 0 0 0 0 0 0 1 2 2 1 0 0 0 0 0 0 0 0 0 0 0 0 0 0 0 0 0 0 0 0 0 0 0 0 0 0 0
0 0 0 0 0 0 0 0 0 0 0 0 0 0 0 0 0 0 0 0 0 0 0 0 0 0 0 0 0 0 0 0 0 0 0 0 0 0
0 0 0 0 0 0 0 0 0 0 0 0 0 0 0 0 0 0 0 0 0 0 0 0 0 0 0 0 0 0 0 0 0 0 0 0 0 0
0 0 0 0 0 0 0 0 0 0 0 0 0 0 0 0 0 0 0 0 0 0 0 0 0 0 0 0 0 0 0 0 0 0 0 0 0 0
0 0 0 0 0 0 0 0 0 0 0 0 0 0 0 0 0 0 0 0 0 0 0 0 0 0 0 0 0 0 0 0 0 0 0 0 0 0
0 0 0 0 0 0 0 0 0 0 0 0 0 0 0 0 0 0 0 0 0 0 0 0 0 0 0 0 0 0 0 0 0 0 0 0 0 0
0 0 0 0 0 0 0 0 0 0 0 0 0 0 0 0 0 0 0 0 0 0 0 0 0 0 0 0 0 0 0 0 0 0 0 0 0 0
0 0 0 0 0 0 0 0 0 0 0 0 0 0 0 0 0 0 0 0 0 0 0 0 0 0 0 0 0 0 0 0 0 0 0 0 0 0
0 0 0 0 0 0 0 0 0 0 0 0 0 0 0 0 0 0 0 0 0 0 0 0 0 0 0 0 0 0 0 0 0 0 0 0 0 0
0 0 0 0 0 0 0 0 0 0 0 0 0 0 0 0 0 0 0 0 0 0 0 0 0 0 0 0 0 0 0 0 0 0 0 0 0 0
0 0 0 0 0 0 0 0 0 0 0 0 0 0 0 0 0 0 0 0 0 0 0 0 0 0 0 0 0 0 0 0 0 0 0 0 0 0
0 0 0 0 0 0 0 0 0 0 0 0 0 0 0 0 0 0 0 0 0 0 0 0 0 0 0 0 0 0 0 0 0 0 0 0 0 0
0 0 0 0 0 0 0 0 0 0 0 0 0 0 0 0 0 0 0 0 0 0 0 0 0 0 0 0 0 0 0 0 0 0 0 0 0 0
0 0 0 0 0 0 0 0 0 0 0 0 0 0 0 0 0 0 0 0 0 0 0 0 0 0 0 0 0 0 0 0 0 0 0 0 0 0
0 0 0 0 0 0 0 0 0 0 0 0 0 0 0 0 0 0 0 0 0 0 0 0 0 0 0 0 0 0 0 0 0 0 0 0 0 0
0 0 0 0 0 0 0 0 0 0 0 0 0 0 0 0 0 0 0 0 0 0 0 0 0 0 0 0 0 0 0 0 0 0 0 0 0 0
0 0 0 0 0 0 0 0 0 0 0 0 0 0 0 0 0 0 0 0 0 0 0 0 0 0 0 0 0 0 0 0 0 0 0 0 0 0
Wind_Speed
11 12 11 10 10 10 9 9 8 7 5 5 3 4 4 5 5 5 6 9 9 10 10 11 11 12 12 12 13 13 13 12 12 11 10 9 5 1
8 10 10 9 9 9 9 8 8 7 4 3 4 5 5 6 6 6 8 11 11 11 12 12 13 13 13 14 14 14 13 13 13 12 11 10 9 8
8 9 10 10 8 7 7 7 7 6 5 6 5 5 6 6 6 6 7 8 9 14 14 15 15 14 14 14 14 14 14 14 13 13 12 11 10 8
7 7 6 5 5 4 4 5 5 6 9 11 6 5 6 7 7 7 8 9 9 14 15 15 15 14 13 14 13 13 13 13 13 12 12 11 10 9
5 5 4 3 2 1 3 4 5 7 9 11 8 5 5 7 8 9 10 9 10 12 13 14 13 13 13 12 12 11 11 11 11 11 11 11 10 10
3 3 3 1 2 5 5 7 8 9 9 9 8 6 6 8 8 9 9 8 8 9 9 10 12 14 14 13 13 13 12 11 12 12 11 11 10 10
2 3 5 6 8 6 6 8 9 8 8 7 7 8 8 8 8 8 9 9 8 8 8 8 8 8 10 13 14 14 13 12 12 12 12 11 11 10
3 5 6 8 11 13 12 9 7 7 8 8 7 8 8 8 7 7 9 8 8 5 6 7 7 8 8 10 10 11 12 13 13 13 13 13 12 11
4 4 6 8 9 10 11 11 10 8 4 5 9 9 9 7 7 7 5 6 7 5 5 7 7 8 9 9 9 10 11 11 12 13 13 13 12 10
5 6 7 8 8 9 10 9 9 8 6 7 9 8 8 6 5 7 8 8 7 4 3 5 6 7 8 9 9 9 9 9 10 11 12 14 14 11
6 6 7 9 8 8 10 11 10 9 13 16 14 12 12 9 4 4 6 7 7 6 2 4 5 6 6 7 8 9 8 7 6 8 10 13 16 13
7 6 6 8 8 5 9 11 11 10 10 11 10 9 8 6 2 0 3 5 7 6 3 1 4 4 5 4 4 4 4 7 7 7 7 8 12 10
8 8 8 9 7 3 5 8 11 11 10 10 8 7 7 6 6 5 5 3 4 6 4 1 2 2 3 5 4 4 5 5 4 3 4 3 3 7
7 8 9 11 8 5 5 11 11 10 9 8 7 7 7 7 7 8 9 10 8 7 4 3 3 2 2 3 3 3 4 5 5 6 6 2 0 1
6 12 14 14 12 9 12 11 9 7 7 7 7 7 7 8 8 7 8 7 7 6 5 3 3 3 3 4 4 4 4 4 5 7 7 6 6 7
11 14 13 10 9 12 10 8 6 6 6 6 7 7 8 7 6 6 7 6 7 8 6 5 4 3 4 4 4 4 4 5 5 7 8 7 5 6
13 11 11 10 10 10 9 7 6 6 6 7 7 8 7 6 6 5 4 5 6 7 7 6 5 4 5 4 3 3 4 4 5 6 7 7 6 6
14 12 11 11 10 10 9 8 8 7 7 7 7 7 7 7 6 6 5 5 5 5 5 4 4 6 6 4 3 4 5 5 6 6 7 8 8 7
12 11 11 10 10 10 9 8 8 8 7 7 7 7 7 7 7 6 5 5 5 5 4 2 0 2 2 3 6 1 4 5 6 6 7 8 9 8
10 11 11 10 10 9 9 8 8 9 8 7 7 7 7 7 7 6 6 5 4 4 4 3 2 2 3 4 2 3 4 4 6 7 8 7 8 7
11 10 11 11 10 10 9 8 9 9 9 8 8 8 7 7 7 6 6 4 2 3 3 4 4 0 3 4 3 1 3 5 2 4 7 8 10 9
11 10 10 10 10 10 9 9 9 9 9 8 8 8 7 7 7 7 7 7 5 4 4 5 5 5 4 2 3 3 2 2 7 11 7 4 7 9
11 10 10 11 11 10 10 10 11 10 10 9 9 8 8 7 6 6 6 5 5 4 4 4 4 4 2 2 3 4 4 6 5 4 2 11 12 12
Wind_Direction
266 259 254 253 250 245 240 235 231 217 192 156 121 83 93 97 97 98 97 90 93 94 93 90 83 77 74 73 70 66 61 58 55 52 49 47 51 183
273 269 262 254 247 243 239 233 225 223 186 125 111 108 96 93 86 90 91 94 90 95 94 90 83 77 73 72 69 66 62 59 57 55 53 51 49 48
286 276 270 261 249 240 234 227 215 201 153 115 112 116 108 105 101 98 95 91 91 92 93 90 85 81 76 73 70 67 64 60 57 53 50 47 45 40
299 297 288 273 246 239 223 209 192 171 144 132 128 127 124 124 117 111 104 99 97 93 94 93 91 87 81 76 70 65 61 58 54 49 44 39 34 27
320 324 312 280 226 172 150 139 133 128 129 131 128 130 135 139 131 120 114 116 111 114 107 100 96 91 84 78 72 66 60 55 49 42 35 26 18 9
348 3 12 37 128 119 112 113 116 117 122 125 130 143 148 151 142 135 129 126 123 120 109 113 111 99 87 78 72 67 60 55 49 41 33 23 12 2
61 54 56 75 91 99 109 114 119 122 129 135 145 153 152 160 150 136 125 124 123 132 136 133 127 109 98 87 74 64 60 55 49 41 33 25 18 11
111 94 97 96 95 90 87 87 102 135 145 149 154 148 146 144 135 142 146 142 130 126 123 111 103 92 81 78 66 61 56 50 43 35 27 21 18 19
119 115 104 106 116 111 99 91 76 68 103 137 131 130 129 127 140 136 105 104 100 124 138 120 113 103 97 87 77 68 60 51 43 35 25 17 11 11
128 121 119 126 124 129 127 115 97 67 70 99 105 103 102 100 99 101 109 114 116 111 147 130 129 122 117 109 107 92 79 64 51 39 28 13 358 345
140 131 133 129 125 138 134 126 114 94 71 73 76 79 69 55 40 146 160 160 135 121 124 130 136 137 128 126 131 137 123 108 86 62 40 19 353 337
146 135 118 127 136 155 150 140 131 124 121 111 102 109 104 97 45 161 180 159 139 124 100 133 141 159 136 114 97 110 128 144 142 112 73 36 359 355
165 159 128 127 137 134 167 147 138 137 134 131 127 123 118 113 105 77 43 57 106 103 104 172 129 141 129 129 103 65 38 27 35 103 112 99 17 360
171 146 124 132 130 128 123 123 136 149 146 147 142 132 122 108 90 79 67 60 57 72 46 27 82 52 102 106 90 75 66 41 17 5 3 30 53 151
125 107 124 132 129 115 120 136 160 160 154 153 140 127 112 106 109 107 100 98 93 83 80 54 89 85 66 75 67 42 26 38 24 3 349 353 3 0
119 119 128 137 123 117 141 166 177 156 158 145 133 127 128 142 150 148 149 148 130 114 99 79 61 68 87 75 58 49 22 10 10 6 340 335 355 2
144 148 150 149 148 152 158 157 151 152 155 142 141 146 151 153 147 136 138 140 131 131 135 135 122 93 60 16 47 29 7 0 5 356 326 337 344 1
160 159 159 159 158 158 158 158 161 160 155 150 154 159 157 153 150 153 158 137 124 119 119 134 168 176 173 126 29 358 354 358 349 345 338 339 339 356
176 164 164 164 160 159 160 160 157 150 153 159 160 159 154 154 158 160 151 141 131 122 115 114 51 300 261 149 134 41 349 346 337 343 346 339 338 347
190 170 168 165 163 162 162 157 148 150 165 166 159 159 161 162 165 167 161 154 144 140 136 126 91 22 5 5 4 141 167 343 348 341 340 336 336 327
197 178 173 169 167 166 161 157 153 159 167 170 162 166 169 170 171 171 143 115 193 162 139 107 83 326 274 261 265 71 134 172 233 305 326 336 339 334
194 181 174 172 171 169 165 165 161 161 167 182 168 173 179 179 171 174 162 173 191 163 137 127 155 212 240 301 325 335 337 300 221 220 244 288 338 337
192 183 173 175 176 175 173 174 172 168 174 182 174 178 185 186 183 179 178 188 180 170 186 187 184 207 244 273 294 312 329 318 318 310 249 199 221 235